Regional Weather Roundup
Issued by NWS Little Rock, AR

Home | Current Version | Previous Version | Graphics & Text | Print | Product List | Glossary On
Versions: 1 2 3 4 5 6 7 8 9 10 11 12 13 14 15 16 17 18 19 20 21 22 23 24 25 26 27
000
ASUS44 KLZK 241805
RWRLZK

WEATHER ROUNDUP FOR ARKANSAS
NATIONAL WEATHER SERVICE LITTLE ROCK AR
100 PM CDT WED AUG 24 2016

NOTE: "FAIR" INDICATES FEW OR NO CLOUDS BELOW 12,000 FEET WITH NO
SIGNIFICANT WEATHER AND/OR OBSTRUCTIONS TO VISIBILITY.

ARZ001-003-010-029-241900-
NORTHWEST ARKANSAS

CITY           SKY/WX    TMP DP  RH WIND       PRES   REMARKS
FAYETTEVILLE   MOSUNNY   87  73  62 SW8G18    30.12F HX  94
6HR MIN TEMP:  74; 6HR MAX TEMP:  88;

FORT SMITH     SUNNY     90  67  46 VRB7      30.09F HX  93
6HR MIN TEMP:  76; 6HR MAX TEMP:  91;

HARRISON       MOSUNNY   88  71  57 VRB6      30.14S HX  94
6HR MIN TEMP:  76; 6HR MAX TEMP:  88;

BENTONVILLE    MOSUNNY   90  68  48 SW10G20   30.12F HX  93
6HR MIN TEMP:  75; 6HR MAX TEMP:  90;

ROGERS         MOSUNNY   89  71  55 S15G23    30.12F HX  95
6HR MIN TEMP:  76; 6HR MAX TEMP:  90;

SILOAM SPGS    SUNNY     91  66  43 SW12      30.11F HX  94
6HR MIN TEMP:  73; 6HR MAX TEMP:  91;

HIGHFILL       MOSUNNY   92  72  51 S16       30.11F HX  99
6HR MIN TEMP:  76; 6HR MAX TEMP:  93;

SPRINGDALE     PTSUNNY   90  72  55 SW17      30.14F HX  96
$$

ARZ004-005-016-241900-
NORTH CENTRAL ARKANSAS

CITY           SKY/WX    TMP DP  RH WIND       PRES   REMARKS
BATESVILLE     MOSUNNY   91  75  59 W10       30.12F HX 102
6HR MIN TEMP:  75; 6HR MAX TEMP:  91;

FLIPPIN        SUNNY     90  70  51 SW10      30.08F HX  95
6HR MIN TEMP:  72; 6HR MAX TEMP:  90;

MTN HOME       SUNNY     88  74  63 SW10G21   30.10F HX  96
6HR MIN TEMP:  74; 6HR MAX TEMP:  88;

$$

ARZ040-041-241900-
WEST CENTRAL ARKANSAS

CITY           SKY/WX    TMP DP  RH WIND       PRES   REMARKS
MENA           SUNNY     90  66  45 W7        30.15F HX  92
MOUNT IDA      SUNNY     91  66  43 VRB7      30.13S HX  93
6HR MIN TEMP:  78; 6HR MAX TEMP:  91;

$$

ARZ009-017-025-026-028-241900-
NORTHEAST ARKANSAS

CITY           SKY/WX    TMP DP  RH WIND       PRES   REMARKS
CORNING          N/A     90  81  74 SW13      30.11F HX 108
JONESBORO      SUNNY     89  76  65 SW14G23   30.11F HX 100
6HR MIN TEMP:  73; 6HR MAX TEMP:  89;

NEWPORT        SUNNY     91  78  65 S12       30.11F HX 106
6HR MIN TEMP:  75; 6HR MAX TEMP:  91;

WALNUT RIDGE   PTSUNNY   90  75  62 S17       30.10F HX 100
6HR MIN TEMP:  73; 6HR MAX TEMP:  90;

BLYTHEVILLE    MOSUNNY   91  78  65 S14       30.13F HX 106
6HR MIN TEMP:  75; 6HR MAX TEMP:  91;

NW BLYTHEVILLE PTSUNNY   91  75  59 SW14G22   30.13F HX 102
$$

ARZ022-023-033-042-044-241900-
CENTRAL ARKANSAS

CITY           SKY/WX    TMP DP  RH WIND       PRES   REMARKS
LITTLE ROCK    MOSUNNY   91  75  59 SW8       30.14S HX 101
6HR MIN TEMP:  77; 6HR MAX TEMP:  93;

SEARCY         MOSUNNY   91  80  70 S10       30.14F HX 109
6HR MIN TEMP:  74; 6HR MAX TEMP:  92;

HOT SPRINGS    SUNNY     90  70  51 S7        30.15S HX  95
6HR MIN TEMP:  75; 6HR MAX TEMP:  91;

RUSSELLVILLE   SUNNY     89  72  56 S6        30.11F HX  96
6HR MIN TEMP:  75; 6HR MAX TEMP:  90;

$$

ARZ036-241900-
EAST ARKANSAS

CITY           SKY/WX    TMP DP  RH WIND       PRES   REMARKS
WEST MEMPHIS   MOSUNNY   90  78  68 S10       30.14F HX 104
6HR MIN TEMP:  73; 6HR MAX TEMP:  90;

$$

ARZ050-053-066-070-073-241900-
SOUTHWEST ARKANSAS

CITY           SKY/WX    TMP DP  RH WIND       PRES   REMARKS
ARKADELPHIA    MOCLDY    89  77  67 S7        30.14F HX 101
6HR MIN TEMP:  74; 6HR MAX TEMP:  89;

CAMDEN         MOSUNNY   91  73  55 CALM      30.14F HX 100
TEXARKANA      MOSUNNY   89  76  65 SE6       30.14F HX 100
6HR MIN TEMP:  76; 6HR MAX TEMP:  90;

EL DORADO      MOSUNNY   91  72  53 SW6       30.16S HX  98
6HR MIN TEMP:  74; 6HR MAX TEMP:  91;

DE QUEEN       SUNNY     89  72  56 S9        30.11F HX  96
6HR MIN TEMP:  71; 6HR MAX TEMP:  90;

$$

ARZ056-057-069-241900-
SOUTHEAST ARKANSAS

CITY           SKY/WX    TMP DP  RH WIND       PRES   REMARKS
PINE BLUFF     MOSUNNY   90  75  61 VRB7      30.15F HX 100
6HR MIN TEMP:  74; 6HR MAX TEMP:  90;

STUTTGART      MOSUNNY   91  73  55 S10       30.15F HX 100
6HR MIN TEMP:  75; 6HR MAX TEMP:  91;

MONTICELLO     SUNNY     94  73  50 S8        30.15F HX 103
6HR MIN TEMP:  80; 6HR MAX TEMP:  94;


$$






USA.gov is the U.S. government's official web portal to all federal, state and local government web resources and services.